STARLINK-11290, 61000

Orbit data source: Space-Track

STARLINK-11290, 61000 is a payload satellite owned by SpaceX/Seattle (US) in LEO that was launched on Thu, 05 Sep 2024 UTC via an FALCON 9 launch vehicle from the Air Force Eastern Test Range (AFETR). Payload-class satellites include a variety of spacecraft equipped with specific instruments for various scientific and technological missions. These include communications satellites like Starlink; space stations such as the ISS; scientific satellites like the Hubble; Earth observation satellites from companies like Planet Labs, Umbra, and HawkEye 360; GPS; miniature CubeSats for education and research; and military/defense satellites.

Loading next visibility...
Identifier
61000, 2024-158L
Orbit
LEO
Country
Flag of USUS
Related business
Manufacturer
SpaceX/Seattle
Mission
Operational Commercial Communications
Bus & Motor
STARLINK V2MD, Unknown motor
Mass
960 kg wet, ~910 kg dry
Launch date (UTC)
2024-09-05 (1 year ago)
Launch vehicle
FALCON 9
Launch site
Air Force Eastern Test Range (AFETR)
Object type
Payload
Rocket body
Debris
Shape & HBR
Box + 2 Pan, 18.1 m
Radar Cross Section
36.964 m², Large (>1 m²)

Expand to show TLE details & history
Last TLE update: 6 hours ago

TLE from 6 hours ago
0 STARLINK-11290
1 61000U 24158L   26038.31445512  .00001992  00000-0  21281-4 0  9990
2 61000  53.1591  71.0182 0001068  69.2159 290.8974 15.69724663 82883
Epoch: 2026-02-07T07:32Z
TLE epoch observation values (Epoch: 2026-02-07T07:32:48.922Z)
Latitude
0.00004°
Longitude
-179.62536°
Altitude
360.343 km
Speed
7.694 km/s
True Right ascension
04h 44m 04s
True Declination
0° 00' 00"
Sunlit
Object was in full shadow at epoch
Visualization orbit readout
Latitude
Unknown
Longitude
Unknown
Altitude
Unknown
Speed
Unknown
Apparent Right ascension
Unknown
Apparent Declination
Unknown
Sunlit
N/A
Visualization observer readout
Local Sidereal Time
15:38:45
Azimuth
Unknown
Elevation
Unknown
Doppler factor
Unknown
Orbital elements
Apogee altitude
360.665 km
Perigee altitude
359.226 km
Semi-major axis
6,738.083 km
Eccentricity
0.00011
Inclination
53.1591°
RAAN
71.0182°
Arg. of periapsis
69.2159°
True anomaly
290.88597°
Mean anomaly
290.8974°
Eccentric anomaly
290.89168°
Mean motion
3.92409 °/min
Orbital period
91.74 mins
BSTAR
0.000021281
Loading maneuver chart data...
Computing Atmospheric mass density...
Loading historical data...
Loading historical data...
Loading historical data...
Loading historical data...
Loading historical data...
Loading historical data...
Loading historical data...

Documentation

Showing up to 5 results
|